Погода в Панарине

Россия / Тульская область     53°29′04″N   37°50′36″E
темп.,
°C
ветер,
м/с
пор.,
м/с
влажн.,
%
обл.,
%
осадки,
мм/ч
давл.,
гПа
погр.,
м
7 марта, вс
вс700:00−12з479040 0.0 101895
03:00−12зюз5109120 0.0 1016190
06:00−11юз6149135 0.0 1013296
09:00−7юз10188467 0.0 1009716
12:00−4юз121988100 0.1 10041038
15:00−3зюз121992100 0.4 10001206
18:00−1зюз111992100 0.7 9971132
21:00−2з111881100 4.2 9981076
8 марта, пн
пн800:00−7з6148150 0.0 1000353
03:00−8зюз6148325 0.0 1001311
06:00−6зюз7149367 0.1 1000558
09:00−6з8148964 0.1 1001827
12:00−5зсз8128488 0.1 10031210
15:00−5зсз698194 0.1 1005973
18:00−9сз34880 0.0 100739
21:00−12зсз33900 0.0 100921
9 марта, вт
вт900:00−13сз339417 0.0 101021
03:00−12ссз349653 0.0 101293
06:00−13с4796100 0.1 1013212
09:00−15ссз489589 0.1 1015245
12:00−12ссз579085 0.0 1017492
15:00−11ссз578793 0.1 1018671
18:00−13сз3492100 0.0 101961
21:00−15сз349496 0.1 102252
10 марта, ср
ср1000:00−19ссз349438 0.0 102341
03:00−20сз239826 0.0 102520
06:00−21сз229819 0.0 102520
09:00−18с129446 0.0 1027101
12:00−15всв2288100 0.1 1027261
15:00−14всв2383100 0.2 1026321
18:00−16в3491100 0.1 1026170
21:00−19всв3591100 0.1 1028115
11 марта, чт
чт1100:00−23в338921 0.0 103027
03:00−23в239111 0.0 103120
06:00−24в23918 0.0 103220
09:00−21в238920 0.0 103395
12:00−17вюв24800 0.0 1033260
15:00−15юв23790 0.0 1033335
18:00−18юв33900 0.0 103220
21:00−21ююв34910 0.0 103429